| time (UTC) | temp F | wind direction | speed MPH | gust MPH | rain 1hr in | rain 24hr in | rain mn in | humidity % | barometer mb |
| 20260905091403 | 61 | 32 | 3.0 | 7.0 | 0.00 | 0.00 | 0.00 | 76 | 997.7 |
| 20260905090903 | 61 | 358 | 4.0 | 7.0 | 0.00 | 0.00 | 0.00 | 75 | 997.6 |
| 20260905090403 | 60 | 300 | 4.0 | 6.0 | 0.00 | 0.00 | 0.00 | 76 | 997.7 |
| 20260905090121 | 60 | 323 | 4.0 | 6.0 | 0.00 | 0.00 | 0.00 | 77 | 997.6 |
| 20260905085404 | 60 | 0 | 2.0 | 7.0 | 0.00 | 0.00 | 0.00 | 79 | 997.5 |
| 20260905084904 | 60 | 357 | 3.0 | 7.0 | 0.00 | 0.00 | 0.00 | 80 | 997.6 |
| 20260905084403 | 59 | 351 | 5.0 | 9.0 | 0.00 | 0.00 | 0.00 | 79 | 997.5 |
| 20260905083903 | 59 | 0 | 5.0 | 9.0 | 0.00 | 0.00 | 0.00 | 81 | 997.4 |
| 20260905083404 | 59 | 0 | 4.0 | 7.0 | 0.00 | 0.00 | 0.00 | 81 | 997.4 |
| 20260905082903 | 58 | 317 | 4.0 | 10.0 | 0.00 | 0.00 | 0.00 | 84 | 997.4 |
| 20260905082403 | 58 | 333 | 5.0 | 10.0 | 0.00 | 0.00 | 0.00 | 84 | 997.3 |
| 20260905081903 | 57 | 321 | 3.0 | 9.0 | 0.00 | 0.00 | 0.00 | 86 | 997.3 |
| 20260905081401 | 57 | 0 | 4.0 | 9.0 | 0.00 | 0.00 | 0.00 | 87 | 997.3 |
| 20260905081355 | 56 | 0 | 3.0 | 6.0 | 0.00 | 0.00 | 0.00 | 87 | 997.2 |
| 20260905080624 | 56 | 28 | 2.0 | 6.0 | 0.00 | 0.00 | 0.00 | 88 | 997.3 |
| 20260905075904 | 56 | 343 | 0.0 | 6.0 | 0.00 | 0.00 | 0.00 | 88 | 997.1 |
| 20260905075404 | 56 | 357 | 3.0 | 6.0 | 0.00 | 0.00 | 0.00 | 89 | 997.1 |
| 20260905074903 | 56 | 7 | 2.0 | 6.0 | 0.00 | 0.00 | 0.00 | 89 | 997.0 |
| 20260905074403 | 56 | 323 | 3.0 | 5.0 | 0.00 | 0.00 | 0.00 | 89 | 997.0 |
| 20260905073904 | 55 | 331 | 3.0 | 6.0 | 0.00 | 0.00 | 0.00 | 89 | 997.0 |
| 20260905073624 | 55 | 302 | 3.0 | 9.0 | 0.00 | 0.00 | 0.00 | 90 | 996.9 |
| 20260905072904 | 55 | 319 | 4.0 | 9.0 | 0.00 | 0.00 | 0.00 | 90 | 996.7 |
| 20260905072633 | 55 | 316 | 3.0 | 5.0 | 0.00 | 0.00 | 0.00 | 91 | 996.7 |
| 20260905071903 | 55 | 0 | 2.0 | 5.0 | 0.00 | 0.00 | 0.00 | 91 | 996.7 |
| 20260905071404 | 55 | 312 | 3.0 | 5.0 | 0.00 | 0.00 | 0.00 | 91 | 996.6 |
| 20260905070903 | 55 | 323 | 1.0 | 5.0 | 0.00 | 0.00 | 0.00 | 90 | 996.6 |
| 20260905070403 | 55 | 338 | 1.0 | 5.0 | 0.00 | 0.00 | 0.00 | 90 | 996.5 |
| 20260905065903 | 55 | 298 | 2.0 | 7.0 | 0.00 | 0.00 | 0.00 | 90 | 996.5 |
| 20260905065403 | 55 | 285 | 2.0 | 7.0 | 0.00 | 0.00 | 0.00 | 90 | 996.3 |
| 20260905064903 | 55 | 17 | 2.0 | 4.0 | 0.00 | 0.00 | 0.00 | 90 | 996.3 |
| 20260905064403 | 55 | 17 | 1.0 | 6.0 | 0.00 | 0.00 | 0.00 | 90 | 996.3 |
| 20260905063903 | 55 | 0 | 1.0 | 6.0 | 0.00 | 0.00 | 0.00 | 90 | 996.1 |
| 20260905063403 | 55 | 4 | 1.0 | 2.0 | 0.00 | 0.00 | 0.00 | 91 | 996.1 |
| 20260905062903 | 55 | 4 | 1.0 | 4.0 | 0.00 | 0.00 | 0.00 | 91 | 996.1 |
| 20260905062629 | 55 | 4 | 0.0 | 4.0 | 0.00 | 0.00 | 0.00 | 91 | 996.0 |
| 20260905061903 | 54 | 21 | 2.0 | 4.0 | 0.00 | 0.00 | 0.00 | 91 | 996.0 |
| 20260905061404 | 54 | 3 | 2.0 | 4.0 | 0.00 | 0.00 | 0.00 | 91 | 995.9 |
| 20260905061354 | 54 | 144 | 0.0 | 3.0 | 0.00 | 0.00 | 0.00 | 91 | 995.9 |
| 20260905060402 | 54 | 21 | 0.0 | 3.0 | 0.00 | 0.00 | 0.00 | 91 | 995.8 |
| 20260905055903 | 54 | 21 | 0.0 | 3.0 | 0.00 | 0.00 | 0.00 | 92 | 995.8 |
| 20260905055404 | 53 | 24 | 1.0 | 4.0 | 0.00 | 0.00 | 0.00 | 92 | 995.7 |
| 20260905054904 | 53 | 24 | 1.0 | 4.0 | 0.00 | 0.00 | 0.00 | 92 | 995.6 |
| 20260905054404 | 53 | 24 | 1.0 | 4.0 | 0.00 | 0.00 | 0.00 | 92 | 995.6 |
| 20260905053904 | 53 | 25 | 0.0 | 4.0 | 0.00 | 0.00 | 0.00 | 92 | 995.6 |
| 20260905053401 | 53 | 24 | 2.0 | 4.0 | 0.00 | 0.00 | 0.00 | 92 | 995.6 |
| 20260905052901 | 53 | 24 | 3.0 | 4.0 | 0.00 | 0.00 | 0.00 | 92 | 995.5 |
| 20260905052401 | 53 | 24 | 2.0 | 4.0 | 0.00 | 0.00 | 0.00 | 92 | 995.5 |
| 20260905051902 | 53 | 25 | 1.0 | 4.0 | 0.00 | 0.00 | 0.00 | 92 | 995.4 |
| 20260905051358 | 53 | 34 | 1.0 | 5.0 | 0.00 | 0.00 | 0.00 | 92 | 995.5 |
| 20260905050859 | 53 | 20 | 2.0 | 6.0 | 0.00 | 0.00 | 0.00 | 92 | 995.4 |
| 20260905050357 | 53 | 30 | 3.0 | 5.0 | 0.00 | 0.00 | 0.00 | 92 | 995.4 |
| 20260905045857 | 53 | 35 | 1.0 | 4.0 | 0.00 | 0.00 | 0.00 | 92 | 995.4 |
| 20260905045620 | 53 | 35 | 1.0 | 4.0 | 0.00 | 0.00 | 0.00 | 92 | 995.3 |
| 20260905044857 | 53 | 35 | 1.0 | 6.0 | 0.00 | 0.00 | 0.00 | 92 | 995.3 |
| 20260905044350 | 53 | 37 | 2.0 | 6.0 | 0.00 | 0.00 | 0.00 | 92 | 995.2 |
| 20260905043847 | 52 | 20 | 1.0 | 4.0 | 0.00 | 0.00 | 0.00 | 92 | 995.1 |
| 20260905043347 | 52 | 35 | 1.0 | 4.0 | 0.00 | 0.00 | 0.00 | 92 | 995.1 |
| 20260905043054 | 52 | 30 | 2.0 | 4.0 | 0.00 | 0.00 | 0.00 | 92 | 995.1 |
| 20260905042332 | 52 | 30 | 0.0 | 4.0 | 0.00 | 0.00 | 0.00 | 92 | 995.0 |
| 20260905041832 | 52 | 6 | 1.0 | 4.0 | 0.00 | 0.00 | 0.00 | 92 | 995.1 |
| 20260905041551 | 52 | 0 | 0.0 | 4.0 | 0.00 | 0.00 | 0.00 | 92 | 995.1 |
| 20260905040831 | 52 | 350 | 2.0 | 5.0 | 0.00 | 0.00 | 0.00 | 91 | 995.0 |
| 20260905040332 | 52 | 0 | 1.0 | 5.0 | 0.00 | 0.00 | 0.00 | 91 | 994.9 |
| 20260905035832 | 52 | 23 | 3.0 | 5.0 | 0.00 | 0.00 | 0.00 | 92 | 994.9 |
| 20260905035331 | 52 | 358 | 1.0 | 3.0 | 0.00 | 0.00 | 0.00 | 92 | 994.9 |
| 20260905034830 | 52 | 17 | 2.0 | 4.0 | 0.00 | 0.00 | 0.00 | 92 | 994.8 |
| 20260905034323 | 53 | 17 | 0.0 | 4.0 | 0.00 | 0.00 | 0.00 | 92 | 994.8 |
| 20260905034042 | 53 | 13 | 1.0 | 3.0 | 0.00 | 0.00 | 0.00 | 92 | 994.7 |
| 20260905033321 | 53 | 44 | 0.0 | 2.0 | 0.00 | 0.00 | 0.00 | 92 | 994.7 |
| 20260905032816 | 53 | 44 | 0.0 | 3.0 | 0.00 | 0.00 | 0.00 | 92 | 994.7 |
| 20260905032317 | 53 | 44 | 0.0 | 4.0 | 0.00 | 0.00 | 0.00 | 92 | 994.7 |
| 20260905031817 | 53 | 44 | 1.0 | 4.0 | 0.00 | 0.00 | 0.00 | 93 | 994.6 |
| 20260905031318 | 53 | 44 | 2.0 | 4.0 | 0.00 | 0.00 | 0.00 | 93 | 994.6 |
| 20260905030812 | 53 | 44 | 2.0 | 4.0 | 0.00 | 0.00 | 0.00 | 93 | 994.6 |
| 20260905030313 | 53 | 44 | 2.0 | 4.0 | 0.00 | 0.00 | 0.00 | 93 | 994.5 |
| 20260905025810 | 53 | 45 | 1.0 | 3.0 | 0.00 | 0.00 | 0.00 | 93 | 994.5 |
| 20260905025313 | 53 | 47 | 1.0 | 4.0 | 0.00 | 0.00 | 0.00 | 93 | 994.4 |
| 20260905024805 | 53 | 47 | 2.0 | 4.0 | 0.00 | 0.00 | 0.00 | 93 | 994.4 |
| 20260905024303 | 53 | 38 | 2.0 | 4.0 | 0.00 | 0.00 | 0.00 | 93 | 994.4 |
| 20260905023806 | 53 | 38 | 1.0 | 4.0 | 0.00 | 0.00 | 0.00 | 93 | 994.4 |
| 20260905023301 | 53 | 37 | 2.0 | 4.0 | 0.00 | 0.00 | 0.00 | 93 | 994.3 |
| 20260905022802 | 53 | 37 | 2.0 | 4.0 | 0.00 | 0.00 | 0.00 | 93 | 994.3 |
| 20260905022305 | 53 | 37 | 2.0 | 4.0 | 0.00 | 0.00 | 0.00 | 93 | 994.3 |
| 20260905021803 | 53 | 32 | 2.0 | 5.0 | 0.00 | 0.00 | 0.00 | 93 | 994.2 |
| 20260905021303 | 53 | 34 | 4.0 | 6.0 | 0.00 | 0.00 | 0.00 | 93 | 994.2 |
| 20260905020802 | 53 | 51 | 4.0 | 6.0 | 0.00 | 0.00 | 0.00 | 93 | 994.1 |
| 20260905020302 | 53 | 25 | 4.0 | 6.0 | 0.00 | 0.00 | 0.00 | 93 | 994.0 |
| 20260905015802 | 53 | 39 | 2.0 | 6.0 | 0.00 | 0.00 | 0.00 | 93 | 994.0 |
| 20260905015306 | 53 | 59 | 3.0 | 6.0 | 0.00 | 0.00 | 0.00 | 93 | 994.0 |
| 20260905014802 | 53 | 52 | 2.0 | 6.0 | 0.00 | 0.00 | 0.00 | 93 | 994.0 |
| 20260905014522 | 53 | 54 | 2.0 | 6.0 | 0.00 | 0.00 | 0.00 | 93 | 994.0 |
| 20260905014026 | 53 | 31 | 3.0 | 6.0 | 0.00 | 0.00 | 0.00 | 93 | 993.9 |
| 20260905013302 | 53 | 48 | 3.0 | 6.0 | 0.00 | 0.00 | 0.00 | 93 | 993.9 |
| 20260905012801 | 53 | 32 | 4.0 | 6.0 | 0.00 | 0.00 | 0.00 | 93 | 994.0 |
| 20260905012301 | 53 | 31 | 2.0 | 6.0 | 0.00 | 0.00 | 0.00 | 93 | 993.9 |
| 20260905011801 | 53 | 35 | 3.0 | 5.0 | 0.00 | 0.00 | 0.00 | 93 | 994.0 |
| 20260905011301 | 54 | 32 | 3.0 | 5.0 | 0.00 | 0.00 | 0.00 | 93 | 993.9 |
| 20260905011020 | 54 | 42 | 2.0 | 6.0 | 0.00 | 0.00 | 0.00 | 93 | 993.9 |
| 20260905010301 | 54 | 54 | 4.0 | 6.0 | 0.00 | 0.00 | 0.00 | 93 | 993.8 |
| 20260905005801 | 53 | 52 | 2.0 | 5.0 | 0.00 | 0.00 | 0.00 | 93 | 993.8 |
| 20260905005300 | 53 | 47 | 2.0 | 6.0 | 0.00 | 0.00 | 0.00 | 94 | 993.8 |
| 20260905005019 | 53 | 61 | 4.0 | 6.0 | 0.00 | 0.00 | 0.00 | 93 | 993.8 |
| 20260905004301 | 53 | 73 | 4.0 | 6.0 | 0.00 | 0.00 | 0.00 | 93 | 993.8 |
| 20260905003801 | 53 | 76 | 4.0 | 6.0 | 0.00 | 0.00 | 0.00 | 93 | 993.8 |
| 20260905003301 | 53 | 41 | 2.0 | 5.0 | 0.00 | 0.00 | 0.00 | 93 | 993.8 |
| 20260905002800 | 53 | 25 | 2.0 | 5.0 | 0.00 | 0.00 | 0.00 | 93 | 993.8 |
| 20260905002300 | 53 | 41 | 2.0 | 7.0 | 0.00 | 0.00 | 0.00 | 93 | 993.8 |
| 20260905001801 | 53 | 38 | 1.0 | 7.0 | 0.00 | 0.00 | 0.00 | 93 | 993.8 |
| 20260905001301 | 53 | 63 | 3.0 | 7.0 | 0.00 | 0.00 | 0.00 | 93 | 993.9 |
| 20260905001020 | 53 | 71 | 2.0 | 7.0 | 0.00 | 0.00 | 0.00 | 93 | 993.9 |
| 20260905000300 | 53 | 31 | 3.0 | 5.0 | 0.00 | 0.00 | 0.00 | 93 | 993.9 |
| 20260904235759 | 53 | 44 | 1.0 | 4.0 | 0.00 | 0.00 | 0.00 | 93 | 993.8 |
| 20260904235527 | 53 | 49 | 2.0 | 5.0 | 0.00 | 0.00 | 0.00 | 93 | 993.9 |
| 20260904234801 | 53 | 71 | 3.0 | 5.0 | 0.00 | 0.00 | 0.00 | 93 | 993.9 |
| 20260904234259 | 53 | 38 | 2.0 | 4.0 | 0.00 | 0.00 | 0.00 | 93 | 993.9 |
| 20260904233800 | 53 | 48 | 2.0 | 4.0 | 0.00 | 0.00 | 0.00 | 93 | 993.9 |
| 20260904233259 | 53 | 56 | 1.0 | 3.0 | 0.00 | 0.00 | 0.00 | 93 | 994.0 |
| 20260904232804 | 53 | 56 | 4.0 | 5.0 | 0.00 | 0.00 | 0.00 | 93 | 994.0 |
| 20260904232758 | 53 | 56 | 1.0 | 5.0 | 0.00 | 0.00 | 0.00 | 93 | 994.0 |
| 20260904231759 | 53 | 66 | 2.0 | 4.0 | 0.00 | 0.00 | 0.00 | 94 | 994.0 |
| 20260904231258 | 53 | 103 | 2.0 | 7.0 | 0.00 | 0.00 | 0.00 | 94 | 993.9 |
| 20260904230759 | 53 | 49 | 2.0 | 7.0 | 0.00 | 0.00 | 0.00 | 94 | 993.9 |
| 20260904230258 | 53 | 80 | 4.0 | 7.0 | 0.00 | 0.00 | 0.00 | 94 | 993.9 |
| 20260904225759 | 53 | 76 | 3.0 | 5.0 | 0.00 | 0.00 | 0.00 | 94 | 993.8 |
| 20260904225259 | 53 | 66 | 2.0 | 5.0 | 0.00 | 0.00 | 0.00 | 94 | 993.8 |
| 20260904224758 | 53 | 82 | 2.0 | 7.0 | 0.00 | 0.00 | 0.00 | 94 | 993.8 |
| 20260904224258 | 53 | 56 | 3.0 | 7.0 | 0.00 | 0.00 | 0.00 | 94 | 993.9 |
| 20260904224015 | 53 | 62 | 3.0 | 6.0 | 0.00 | 0.00 | 0.00 | 94 | 993.9 |
| 20260904223516 | 53 | 61 | 4.0 | 6.0 | 0.00 | 0.00 | 0.00 | 94 | 993.8 |
| 20260904222757 | 53 | 66 | 3.0 | 5.0 | 0.00 | 0.00 | 0.00 | 94 | 994.0 |
| 20260904222257 | 53 | 65 | 3.0 | 5.0 | 0.00 | 0.00 | 0.00 | 93 | 994.0 |
| 20260904221758 | 53 | 82 | 2.0 | 6.0 | 0.00 | 0.00 | 0.00 | 93 | 994.0 |
| 20260904221257 | 53 | 66 | 3.0 | 6.0 | 0.00 | 0.00 | 0.00 | 93 | 994.1 |
| 20260904220757 | 53 | 94 | 3.0 | 5.0 | 0.00 | 0.00 | 0.00 | 93 | 994.2 |
| 20260904220257 | 53 | 107 | 4.0 | 6.0 | 0.00 | 0.00 | 0.00 | 93 | 994.2 |
| 20260904215758 | 53 | 92 | 4.0 | 6.0 | 0.00 | 0.00 | 0.00 | 93 | 994.3 |
| 20260904215257 | 53 | 106 | 2.0 | 3.0 | 0.00 | 0.00 | 0.00 | 93 | 994.4 |
| 20260904214757 | 53 | 128 | 1.0 | 3.0 | 0.00 | 0.00 | 0.00 | 93 | 994.4 |
| 20260904214257 | 53 | 138 | 0.0 | 4.0 | 0.00 | 0.00 | 0.00 | 93 | 994.5 |
| 20260904213757 | 53 | 71 | 1.0 | 4.0 | 0.00 | 0.00 | 0.00 | 93 | 994.4 |
| 20260904213257 | 53 | 125 | 2.0 | 4.0 | 0.00 | 0.00 | 0.00 | 93 | 994.5 |
| 20260904212756 | 53 | 86 | 2.0 | 4.0 | 0.00 | 0.00 | 0.00 | 93 | 994.5 |
| 20260904212256 | 53 | 69 | 2.0 | 5.0 | 0.00 | 0.00 | 0.00 | 93 | 994.5 |
| 20260904211756 | 53 | 83 | 2.0 | 5.0 | 0.00 | 0.00 | 0.00 | 93 | 994.5 |
| 20260904211256 | 53 | 134 | 2.0 | 5.0 | 0.00 | 0.00 | 0.00 | 93 | 994.5 |
| 20260904210756 | 53 | 93 | 2.0 | 4.0 | 0.00 | 0.00 | 0.00 | 93 | 994.5 |
| 20260904210256 | 53 | 47 | 0.0 | 4.0 | 0.00 | 0.00 | 0.00 | 93 | 994.5 |
| 20260904210012 | 53 | 45 | 2.0 | 4.0 | 0.00 | 0.00 | 0.00 | 93 | 994.6 |
| 20260904205256 | 53 | 45 | 1.0 | 3.0 | 0.00 | 0.00 | 0.00 | 93 | 994.5 |
| 20260904204755 | 53 | 45 | 1.0 | 4.0 | 0.00 | 0.00 | 0.00 | 93 | 994.5 |
| 20260904204515 | 53 | 97 | 2.0 | 4.0 | 0.00 | 0.00 | 0.00 | 93 | 994.5 |
| 20260904203755 | 53 | 66 | 2.0 | 6.0 | 0.00 | 0.00 | 0.00 | 93 | 994.7 |
| 20260904203255 | 53 | 82 | 4.0 | 6.0 | 0.00 | 0.00 | 0.00 | 93 | 994.6 |
| 20260904202755 | 53 | 113 | 2.0 | 3.0 | 0.00 | 0.00 | 0.00 | 93 | 994.7 |
| 20260904202513 | 53 | 113 | 2.0 | 3.0 | 0.00 | 0.00 | 0.00 | 93 | 994.8 |
| 20260904201755 | 53 | 114 | 1.0 | 4.0 | 0.00 | 0.00 | 0.00 | 93 | 994.8 |
| 20260904201255 | 53 | 96 | 1.0 | 4.0 | 0.00 | 0.00 | 0.00 | 93 | 994.8 |
| 20260904200755 | 53 | 116 | 1.0 | 4.0 | 0.00 | 0.00 | 0.00 | 92 | 994.8 |
| 20260904200515 | 53 | 97 | 2.0 | 4.0 | 0.00 | 0.00 | 0.00 | 93 | 994.8 |
| 20260904195754 | 53 | 110 | 1.0 | 3.0 | 0.00 | 0.00 | 0.00 | 92 | 994.9 |
| 20260904195254 | 53 | 82 | 3.0 | 3.0 | 0.00 | 0.00 | 0.00 | 92 | 994.9 |
| 20260904194755 | 53 | 65 | 1.0 | 3.0 | 0.00 | 0.00 | 0.00 | 92 | 994.9 |
| 20260904194255 | 53 | 56 | 0.0 | 2.0 | 0.00 | 0.00 | 0.00 | 92 | 995.0 |
| 20260904193754 | 53 | 55 | 0.0 | 2.0 | 0.00 | 0.00 | 0.00 | 92 | 995.0 |
| 20260904193254 | 53 | 55 | 0.0 | 2.0 | 0.00 | 0.00 | 0.00 | 92 | 995.1 |
| 20260904192755 | 53 | 55 | 0.0 | 4.0 | 0.00 | 0.00 | 0.00 | 92 | 995.0 |
| 20260904192254 | 53 | 99 | 1.0 | 4.0 | 0.00 | 0.00 | 0.00 | 92 | 995.1 |
| 20260904191753 | 53 | 102 | 1.0 | 6.0 | 0.00 | 0.00 | 0.00 | 92 | 995.1 |
| 20260904191517 | 53 | 73 | 3.0 | 6.0 | 0.00 | 0.00 | 0.00 | 92 | 995.2 |
| 20260904190753 | 53 | 90 | 2.0 | 5.0 | 0.00 | 0.00 | 0.00 | 91 | 995.2 |
| 20260904190745 | 53 | 96 | 2.0 | 5.0 | 0.00 | 0.00 | 0.00 | 91 | 995.2 |
| 20260904190025 | 53 | 69 | 2.0 | 3.0 | 0.00 | 0.00 | 0.00 | 91 | 995.3 |
| 20260904185253 | 53 | 94 | 1.0 | 3.0 | 0.00 | 0.00 | 0.00 | 90 | 995.4 |
| 20260904184753 | 53 | 100 | 0.0 | 2.0 | 0.00 | 0.00 | 0.00 | 90 | 995.4 |
| 20260904184253 | 53 | 100 | 0.0 | 4.0 | 0.00 | 0.00 | 0.00 | 89 | 995.5 |
| 20260904183753 | 53 | 100 | 0.0 | 4.0 | 0.00 | 0.00 | 0.00 | 89 | 995.5 |
| 20260904183252 | 53 | 87 | 1.0 | 4.0 | 0.00 | 0.00 | 0.00 | 89 | 995.6 |
| 20260904183016 | 53 | 94 | 1.0 | 7.0 | 0.00 | 0.00 | 0.00 | 89 | 995.6 |
| 20260904182515 | 53 | 94 | 4.0 | 9.0 | 0.00 | 0.00 | 0.00 | 88 | 995.6 |
| 20260904181753 | 53 | 103 | 5.0 | 9.0 | 0.00 | 0.00 | 0.00 | 88 | 995.6 |
| 20260904181513 | 53 | 71 | 3.0 | 6.0 | 0.00 | 0.00 | 0.00 | 88 | 995.7 |
| 20260904180753 | 53 | 71 | 3.0 | 5.0 | 0.00 | 0.00 | 0.00 | 88 | 995.8 |
| 20260904180518 | 53 | 85 | 2.0 | 7.0 | 0.00 | 0.00 | 0.00 | 87 | 995.8 |
| 20260904180243 | 53 | 147 | 4.0 | 7.0 | 0.00 | 0.00 | 0.00 | 87 | 995.9 |
| 20260904175252 | 54 | 85 | 4.0 | 7.0 | 0.00 | 0.00 | 0.00 | 86 | 995.9 |
| 20260904175240 | 55 | 157 | 3.0 | 5.0 | 0.00 | 0.00 | 0.00 | 86 | 995.9 |
| 20260904174251 | 55 | 145 | 3.0 | 5.0 | 0.00 | 0.00 | 0.00 | 85 | 996.0 |
| 20260904174234 | 55 | 147 | 1.0 | 5.0 | 0.00 | 0.00 | 0.00 | 85 | 996.0 |
| 20260904173251 | 55 | 135 | 3.0 | 6.0 | 0.00 | 0.00 | 0.00 | 84 | 995.9 |
| 20260904173018 | 56 | 137 | 4.0 | 6.0 | 0.00 | 0.00 | 0.00 | 83 | 996.0 |
| 20260904172252 | 56 | 147 | 3.0 | 6.0 | 0.00 | 0.00 | 0.00 | 84 | 996.0 |
| 20260904171751 | 56 | 148 | 0.0 | 9.0 | 0.00 | 0.00 | 0.00 | 85 | 995.9 |
| 20260904171519 | 56 | 196 | 4.0 | 9.0 | 0.00 | 0.00 | 0.00 | 84 | 996.0 |
| 20260904171011 | 57 | 157 | 2.0 | 3.0 | 0.00 | 0.00 | 0.00 | 87 | 995.9 |
| 20260904170251 | 57 | 185 | 2.0 | 3.0 | 0.00 | 0.00 | 0.00 | 87 | 995.9 |
| 20260904165751 | 57 | 175 | 1.0 | 3.0 | 0.00 | 0.00 | 0.00 | 87 | 995.9 |
| 20260904165250 | 58 | 203 | 1.0 | 2.0 | 0.00 | 0.00 | 0.00 | 86 | 995.9 |
| 20260904164751 | 58 | 200 | 1.0 | 2.0 | 0.00 | 0.00 | 0.00 | 85 | 995.9 |
| 20260904164251 | 58 | 196 | 0.0 | 2.0 | 0.00 | 0.00 | 0.00 | 85 | 996.0 |
| 20260904164007 | 58 | 243 | 0.0 | 2.0 | 0.00 | 0.00 | 0.00 | 84 | 995.9 |
| 20260904163249 | 58 | 179 | 0.0 | 0.0 | 0.00 | 0.00 | 0.00 | 83 | 996.0 |
| 20260904162749 | 59 | 179 | 0.0 | 3.0 | 0.00 | 0.00 | 0.00 | 82 | 996.0 |
| 20260904162249 | 59 | 179 | 1.0 | 3.0 | 0.00 | 0.00 | 0.00 | 82 | 996.0 |
| 20260904161749 | 59 | 144 | 0.0 | 1.0 | 0.00 | 0.00 | 0.00 | 82 | 995.9 |
| 20260904161249 | 59 | 144 | 0.0 | 2.0 | 0.00 | 0.00 | 0.00 | 81 | 995.9 |
| 20260904160749 | 59 | 142 | 0.0 | 3.0 | 0.00 | 0.00 | 0.00 | 81 | 995.9 |
| 20260904160735 | 59 | 144 | 1.0 | 4.0 | 0.00 | 0.00 | 0.00 | 80 | 995.9 |
| 20260904155749 | 59 | 130 | 2.0 | 4.0 | 0.00 | 0.00 | 0.00 | 80 | 996.0 |
| 20260904155727 | 59 | 128 | 1.0 | 3.0 | 0.00 | 0.00 | 0.00 | 80 | 996.0 |
| 20260904155008 | 59 | 128 | 1.0 | 3.0 | 0.00 | 0.00 | 0.00 | 81 | 996.0 |
| 20260904154248 | 59 | 128 | 1.0 | 4.0 | 0.00 | 0.00 | 0.00 | 80 | 996.1 |
| 20260904154008 | 59 | 121 | 1.0 | 4.0 | 0.00 | 0.00 | 0.00 | 80 | 996.1 |
| 20260904153248 | 59 | 61 | 1.0 | 2.0 | 0.00 | 0.00 | 0.00 | 81 | 996.2 |
| 20260904152748 | 59 | 61 | 0.0 | 2.0 | 0.00 | 0.00 | 0.00 | 80 | 996.2 |
| 20260904152247 | 59 | 61 | 1.0 | 2.0 | 0.00 | 0.00 | 0.00 | 79 | 996.3 |
| 20260904152008 | 59 | 61 | 1.0 | 2.0 | 0.00 | 0.00 | 0.00 | 79 | 996.3 |
| 20260904151247 | 59 | 61 | 1.0 | 3.0 | 0.00 | 0.00 | 0.00 | 79 | 996.4 |
| 20260904150748 | 59 | 61 | 2.0 | 3.0 | 0.00 | 0.00 | 0.00 | 79 | 996.5 |
| 20260904150247 | 59 | 224 | 1.0 | 2.0 | 0.00 | 0.00 | 0.00 | 80 | 996.4 |
| 20260904145748 | 59 | 224 | 1.0 | 2.0 | 0.00 | 0.00 | 0.00 | 80 | 996.5 |
| 20260904145247 | 60 | 224 | 0.0 | 3.0 | 0.00 | 0.00 | 0.00 | 80 | 996.6 |
| 20260904144748 | 60 | 224 | 0.0 | 3.0 | 0.00 | 0.00 | 0.00 | 79 | 996.7 |
| 20260904144246 | 60 | 213 | 2.0 | 4.0 | 0.00 | 0.00 | 0.00 | 77 | 996.7 |
| 20260904143747 | 61 | 188 | 2.0 | 4.0 | 0.00 | 0.00 | 0.00 | 76 | 996.8 |
| 20260904143506 | 61 | 185 | 1.0 | 3.0 | 0.00 | 0.00 | 0.00 | 75 | 996.7 |
| 20260904142747 | 61 | 238 | 0.0 | 3.0 | 0.00 | 0.00 | 0.00 | 75 | 996.8 |
| 20260904142246 | 61 | 203 | 1.0 | 3.0 | 0.00 | 0.00 | 0.00 | 74 | 996.9 |
| 20260904141747 | 61 | 261 | 1.0 | 5.0 | 0.00 | 0.00 | 0.00 | 73 | 996.9 |
| 20260904141247 | 61 | 237 | 1.0 | 5.0 | 0.00 | 0.00 | 0.00 | 72 | 996.9 |
| 20260904140746 | 62 | 265 | 1.0 | 4.0 | 0.00 | 0.00 | 0.00 | 72 | 997.0 |
| 20260904140246 | 62 | 223 | 1.0 | 4.0 | 0.00 | 0.00 | 0.00 | 71 | 997.1 |
| 20260904135745 | 62 | 238 | 2.0 | 4.0 | 0.00 | 0.00 | 0.00 | 70 | 997.1 |
| 20260904135246 | 62 | 202 | 0.0 | 4.0 | 0.00 | 0.00 | 0.00 | 69 | 997.2 |
| 20260904134747 | 62 | 203 | 2.0 | 5.0 | 0.00 | 0.00 | 0.00 | 67 | 997.2 |
| 20260904134245 | 63 | 261 | 1.0 | 5.0 | 0.00 | 0.00 | 0.00 | 67 | 997.2 |
| 20260904133746 | 63 | 258 | 1.0 | 7.0 | 0.00 | 0.00 | 0.00 | 66 | 997.2 |
| 20260904133245 | 63 | 214 | 1.0 | 7.0 | 0.00 | 0.00 | 0.00 | 65 | 997.2 |
| 20260904132746 | 63 | 195 | 2.0 | 5.0 | 0.00 | 0.00 | 0.00 | 65 | 997.2 |
| 20260904132733 | 63 | 221 | 4.0 | 5.0 | 0.00 | 0.00 | 0.00 | 64 | 997.3 |
| 20260904131745 | 63 | 275 | 2.0 | 5.0 | 0.00 | 0.00 | 0.00 | 64 | 997.3 |
| 20260904131245 | 63 | 203 | 3.0 | 6.0 | 0.00 | 0.00 | 0.00 | 64 | 997.3 |
| 20260904130744 | 64 | 207 | 3.0 | 6.0 | 0.00 | 0.00 | 0.00 | 63 | 997.3 |
| 20260904130245 | 64 | 227 | 2.0 | 6.0 | 0.00 | 0.00 | 0.00 | 62 | 997.4 |
| 20260904125745 | 64 | 212 | 2.0 | 4.0 | 0.00 | 0.00 | 0.00 | 61 | 997.3 |
| 20260904125245 | 64 | 206 | 2.0 | 4.0 | 0.00 | 0.00 | 0.00 | 60 | 997.3 |
| 20260904125012 | 64 | 183 | 1.0 | 5.0 | 0.00 | 0.00 | 0.00 | 61 | 997.3 |
| 20260904124245 | 65 | 141 | 2.0 | 5.0 | 0.00 | 0.00 | 0.00 | 58 | 997.4 |
| 20260904124225 | 65 | 186 | 1.0 | 5.0 | 0.00 | 0.00 | 0.00 | 57 | 997.5 |
| 20260904123506 | 65 | 213 | 3.0 | 5.0 | 0.00 | 0.00 | 0.00 | 55 | 997.5 |
| 20260904122744 | 65 | 138 | 3.0 | 5.0 | 0.00 | 0.00 | 0.00 | 55 | 997.5 |
| 20260904122244 | 65 | 127 | 3.0 | 5.0 | 0.00 | 0.00 | 0.00 | 54 | 997.6 |
| 20260904121744 | 65 | 251 | 2.0 | 3.0 | 0.00 | 0.00 | 0.00 | 57 | 997.6 |
| 20260904121244 | 65 | 265 | 1.0 | 3.0 | 0.00 | 0.00 | 0.00 | 59 | 997.7 |
| 20260904120744 | 65 | 281 | 1.0 | 3.0 | 0.00 | 0.00 | 0.00 | 57 | 997.8 |
| 20260904120243 | 65 | 279 | 2.0 | 3.0 | 0.00 | 0.00 | 0.00 | 58 | 997.8 |
| 20260904115743 | 64 | 183 | 2.0 | 6.0 | 0.00 | 0.00 | 0.00 | 58 | 997.9 |
| 20260904115244 | 64 | 96 | 4.0 | 6.0 | 0.00 | 0.00 | 0.00 | 58 | 998.0 |
| 20260904114743 | 64 | 302 | 2.0 | 5.0 | 0.00 | 0.00 | 0.00 | 57 | 998.0 |
| 20260904114243 | 65 | 309 | 2.0 | 4.0 | 0.00 | 0.00 | 0.00 | 57 | 998.1 |
| 20260904113743 | 65 | 220 | 2.0 | 4.0 | 0.00 | 0.00 | 0.00 | 59 | 998.2 |
| 20260904113243 | 65 | 189 | 2.0 | 5.0 | 0.00 | 0.00 | 0.00 | 59 | 998.2 |
| 20260904112743 | 64 | 235 | 2.0 | 5.0 | 0.00 | 0.00 | 0.00 | 59 | 998.3 |
| 20260904112243 | 64 | 276 | 2.0 | 3.0 | 0.00 | 0.00 | 0.00 | 57 | 998.3 |
| 20260904112006 | 64 | 248 | 1.0 | 3.0 | 0.00 | 0.00 | 0.00 | 58 | 998.3 |
| 20260904111242 | 65 | 293 | 2.0 | 3.0 | 0.00 | 0.00 | 0.00 | 57 | 998.4 |
| 20260904110742 | 65 | 302 | 1.0 | 3.0 | 0.00 | 0.00 | 0.00 | 57 | 998.4 |
| 20260904110508 | 65 | 247 | 2.0 | 3.0 | 0.00 | 0.00 | 0.00 | 59 | 998.4 |
| 20260904105742 | 65 | 261 | 0.0 | 3.0 | 0.00 | 0.00 | 0.00 | 58 | 998.4 |
| 20260904105242 | 65 | 243 | 0.0 | 3.0 | 0.00 | 0.00 | 0.00 | 57 | 998.5 |
| 20260904104742 | 65 | 275 | 2.0 | 3.0 | 0.00 | 0.00 | 0.00 | 58 | 998.5 |
| 20260904104242 | 65 | 279 | 1.0 | 3.0 | 0.00 | 0.00 | 0.00 | 57 | 998.6 |
| 20260904103958 | 65 | 238 | 1.0 | 2.0 | 0.00 | 0.00 | 0.00 | 56 | 998.6 |
| 20260904103242 | 65 | 248 | 1.0 | 3.0 | 0.00 | 0.00 | 0.00 | 58 | 998.6 |
| 20260904102742 | 64 | 183 | 1.0 | 3.0 | 0.00 | 0.00 | 0.00 | 55 | 998.6 |
| 20260904102241 | 65 | 209 | 2.0 | 3.0 | 0.00 | 0.00 | 0.00 | 55 | 998.6 |
| 20260904101741 | 65 | 274 | 1.0 | 5.0 | 0.00 | 0.00 | 0.00 | 59 | 998.6 |
| 20260904101241 | 65 | 286 | 0.0 | 5.0 | 0.00 | 0.00 | 0.00 | 59 | 998.6 |
| 20260904100743 | 65 | 235 | 2.0 | 5.0 | 0.00 | 0.00 | 0.00 | 58 | 998.7 |
| 20260904100241 | 65 | 199 | 2.0 | 5.0 | 0.00 | 0.00 | 0.00 | 57 | 998.7 |
| 20260904095741 | 66 | 245 | 1.0 | 3.0 | 0.00 | 0.00 | 0.00 | 59 | 998.7 |
| 20260904095241 | 65 | 248 | 1.0 | 4.0 | 0.00 | 0.00 | 0.00 | 59 | 998.7 |
| 20260904094740 | 65 | 275 | 2.0 | 4.0 | 0.00 | 0.00 | 0.00 | 59 | 998.8 |
| 20260904094506 | 65 | 269 | 1.0 | 4.0 | 0.00 | 0.00 | 0.00 | 60 | 998.8 |
| 20260904093741 | 65 | 234 | 3.0 | 5.0 | 0.00 | 0.00 | 0.00 | 62 | 998.8 |
| 20260904093240 | 64 | 281 | 1.0 | 5.0 | 0.00 | 0.00 | 0.00 | 63 | 998.8 |
| 20260904092740 | 64 | 298 | 2.0 | 4.0 | 0.00 | 0.00 | 0.00 | 65 | 998.9 |
| 20260904092240 | 64 | 292 | 1.0 | 4.0 | 0.00 | 0.00 | 0.00 | 63 | 998.9 |
| 20260904091740 | 63 | 237 | 2.0 | 4.0 | 0.00 | 0.00 | 0.00 | 63 | 999.0 |